Weather past 2 weeks in Jamestown, Saint Helena

Now
63 °F

Mild.


Feels Like: 63 °F
Forecast: N/A
Wind: 15 mph from East

Location: Saint Helena Island

Current Time: Jul 5, 2015 at 7:52:30 PM

Latest Report: Jul 5, 2015 at 7:00 PM


Visibility: N/A

Pressure: 30.06 "Hg

Humidity: 90%

Dew point: 60 °F

Location of JamestownLocation

Historic Weather in Jamestown — Graph

°F

Jamestown temperature yesterday

Maximum temperature yesterday: 64 °F (at 1:00 PM)
Minimum temperature yesterday: 60 °F (at 4:00 AM)
Average temperature yesterday: 62 °F

Past Weeks' High & Low Weather Summary

 TemperatureHumidityPressure
High70 °F (Jun 23, 1:00 PM)100% (Jul 3, 7:00 PM)30.34 "Hg (Jul 3, 7:00 PM)
Low57 °F (Jun 28, 5:00 AM)50% (Jun 23, 12:00 PM)30.03 "Hg (Jul 5, 4:00 PM)
Average62 °F87%30.18 "Hg
* Reported Jun 20 6:00 PM — Jul 5 6:00 PM, Jamestown, Weather by CustomWeather, © 2015

Note: Actual official high and low records may vary slightly from our data, if they occured in-between our weather recording intervals... More about our weather records

Advertising

Jamestown weather history for previous 24 hours

 ConditionsComfort  
Time TempWeatherWind HumidityBarometerVisibility
6:00 PM
Sun, Jul 5
63 °FMild.15 mph95%30.05 "HgN/A
5:00 PM63 °FMild.14 mph90%30.04 "HgN/A
4:00 PM64 °FMild.12 mph85%30.03 "HgN/A
3:00 PM65 °FMild.13 mph83%30.04 "HgN/A
2:00 PM65 °FMild.13 mph84%30.05 "HgN/A
1:00 PM65 °FPartly sunny.14 mph79%30.09 "Hg7 mi
12:00 PM66 °FScattered clouds.13 mph77%30.10 "Hg7 mi
11:00 AM64 °FOvercast.15 mph78%30.12 "Hg9 mi
10:00 AM64 °FMild.14 mph79%30.13 "HgN/A
9:00 AM63 °FMild.14 mph90%30.11 "HgN/A
8:00 AM62 °FCool.12 mph84%30.11 "HgN/A
7:00 AM62 °FCool.12 mph85%30.10 "HgN/A
5:00 AM62 °FCool.14 mph87%30.09 "HgN/A
4:00 AM62 °FCool.13 mph91%30.08 "HgN/A
2:00 AM62 °FCool.16 mph92%30.10 "HgN/A
1:00 AM62 °FCool.14 mph92%30.12 "HgN/A
12:00 AM62 °FCool.14 mph94%30.13 "HgN/A
11:00 PM
Sat, Jul 4
62 °FCool.13 mph97%30.13 "HgN/A
10:00 PM62 °FCool.14 mph95%30.13 "HgN/A
9:00 PM62 °FCool.14 mph96%30.14 "HgN/A
8:00 PM61 °FCool.12 mph97%30.14 "HgN/A
7:00 PM62 °FCool.13 mph92%30.12 "HgN/A
Weather by CustomWeather, © 2015

See weather overviewHow to use our weather pages